Weather Roundup
Issued by NWS Springfield, MO

Home | Current Version | Previous Version | Text Only | Print | Product List | Glossary On
Versions: 1 2 3 4 5 6 7 8 9 10 11 12 13 14 15 16 17 18 19 20 21 22 23 24 25 26 27 28 29 30 31 32 33 34 35 36 37 38 39 40 41 42 43 44 45 46 47 48 49 50
000
NZUS99 KSGF 221659
HRRSGF

HOURLY WEATHER
NATIONAL WEATHER SERVICE SPRINGFIELD MO
1200 PM CDT MON SEP 22 2014

......SGF CWA......

CITY           SKY/WX    TMP DP  RH WIND       PRES   REMARKS
SPRINGFIELD    SUNNY     68  50  52 CALM      30.30F
JOPLIN         SUNNY     68  50  52 NE9       30.31F
WEST PLAINS    MOSUNNY   68  50  52 NE8       30.31S
ROLLA          SUNNY     66  48  52 N12       30.30F
OSAGE BEACH    SUNNY     66  50  55 NE5       30.31F
BRANSON        MOSUNNY   72  52  49 N6        30.31F

......SURROUNDING SGF CWA......

CITY           SKY/WX    TMP DP  RH WIND       PRES   REMARKS
CHANUTE        SUNNY     70  50  49 CALM      30.32S
PARSONS        SUNNY     70  51  51 MISG      30.32F
COFFEYVILLE    SUNNY     69  50  50 VRB5      30.31S
EMPORIA        SUNNY     68  49  50 SE7       30.32F
SILOAM SPRINGS SUNNY     70  48  46 NE7       30.30F
HARRISON AR    SUNNY     67  51  56 NE6       30.30F
NEAR YELLVILLE SUNNY     70  48  46 E6        30.29F

......KANSAS AND MISSOURI......

CITY           SKY/WX    TMP DP  RH WIND       PRES   REMARKS
KANSAS CTY INT MOSUNNY   67  50  54 VRB3      30.32F
DOWNTOWN KC    SUNNY     69  49  48 E8        30.31F
COLUMBIA       SUNNY     68  50  52 NE7       30.32S
SEDALIA        SUNNY     70  51  51 NE6       30.32F
ST JOSEPH      SUNNY     68  51  54 SE5       30.31F
ST LOUIS       MOSUNNY   69  50  50 NW6       30.31F
SPIRIT OF STL  SUNNY     67  48  50 NE8       30.30F
KIRKSVILLE     SUNNY     67  49  52 VRB3      30.33F
WICHITA        PTSUNNY   73  44  35 SE9       30.31F
TOPEKA         SUNNY     70  50  49 S5        30.32F
OLATHE         SUNNY     68  51  54 VRB3      30.31F

......TENNESSEE......

CITY           SKY/WX    TMP DP  RH WIND       PRES   REMARKS
MEMPHIS        MOSUNNY   73  51  46 NE12      30.23R
NASHVILLE      MOSUNNY   71  50  47 N14G20    30.21S

......ARKANSAS.......

CITY           SKY/WX    TMP DP  RH WIND       PRES   REMARKS
FAYETTEVILLE   SUNNY     68  53  58 E9        30.29F
FT SMITH       SUNNY     72  50  45 E10       30.26F
LITTLE ROCK    MOSUNNY   74  50  42 N8        30.25S

......OKLAHOMA.......

CITY           SKY/WX    TMP DP  RH WIND       PRES   REMARKS
TULSA          PTSUNNY   72  50  45 SE7       30.30S
PONCA CITY     SUNNY     72  48  42 SE8       30.30F
MCALESTER      SUNNY     75  50  41 N7        30.27F
OKLAHOMA CITY  MOSUNNY   75  47  36 E10       30.29F

......IOWA............

CITY           SKY/WX    TMP DP  RH WIND       PRES   REMARKS
DES MOINES     MOSUNNY   67  50  54 CALM      30.31F
QUAD CITIES    SUNNY     64  44  48 VRB3      30.32F

......ILLINOIS........

CITY           SKY/WX    TMP DP  RH WIND       PRES   REMARKS
QUINCY         SUNNY     66  44  45 NW6       30.31F
CHICAGO        MOSUNNY   55  41  59 NE5       30.29S




USA.gov is the U.S. government's official web portal to all federal, state and local government web resources and services.